Погода в Симферополе

Погода в Симферополе : погода сейчас, прогноз погоды и архив. Всё, что Вы хотите узнать о погоде в Симферополе!

Хотите узнать прогноз погоды в Симферополе? Тогда Вам сюда: Погода в Симферополе

Поиск расширенной информации на нашем сайте:

Другие новости

Новости СМИ2

Главная страница сайта

Новости сайта

03.07.2017

Напоминаем, что на нашем специализированном сайте Метеоцентр.Азия вы можете получить высокодетализированные автоматические прогнозы погоды по пунктам России, СНГ и мира в авиационном формате (включающие направление и скорость ветра, видимость, явления погоды, количество и форму облачности, нижнюю и верхнюю границу облачности).


Погода в Симферополе - сегодня

Время (UTC), дата Ветер
(°,м/с) 
Видим.   Явления Облачность Т
(°С)
Тd
(°С)
f(%) Тe
(°С)
Pmin
(гПа)
dP
(гПа)
Po
(мм)
O2
(г/м3)
Тmin Tmax R s Состояние
почвы
06 11.12.17 170 (Ю) 10 км    8/5 960 м средняя 
[Sc|Ac trans]
+3.8 +1 82 +1  1021.1  749  297  +2.7       
09 11.12.17 200 (Ю) 7-11{11}  10 км    6/1 1000 м средняя, верхняя 
[Sc|Ac trans|Ci]
+7.6 +1.9 67 +5  1021.4  0.6  749  293           
12 11.12.17 210 (ЮЗ) 9-13{14}  10 км    10/3 1080 м средняя, верхняя 
[Sc|Ac trans|Ci fib]
+8.8 +1.9 62 +6  1020.4  -0.9  749  292           
15 11.12.17 190 (Ю) 6{13}  10 км    10/0 средняя, верхняя 
[Ac trans|Ci fib]
+7.5 +3 73 +5  1019.8  -0.6  748  293           
18 11.12.17 210 (ЮЗ) 5{10}  10 км    8/0 верхняя 
[Ci fib]
+7.5 +4.5 81 +6  1021  1.1  749  293    +9.8       
21 11.12.17 190 (Ю) 7-10{11}  10 км    6/0 верхняя 
[Ci fib]
+8.8 +4.8 76 +7  1020.1  -0.7  749  291           
00 12.12.17 210 (ЮЗ) 8-12{12}  10 км    3/0 верхняя 
[Ci fib]
+10 +6.9 81 +8  1019.3  -0.7  748  290           
03 12.12.17 210 (ЮЗ) 9-14  10 км    ясно 
+10.9 +6.6 75 +9  1019  -0.2  748  289  +7.2         
06 12.12.17 210 (ЮЗ) 9-13  10 км    10/0 средняя, верхняя 
[Ac trans|Ci fib]
+11.3 +6.6 73 +9  1020  749  289  +7.3         
09 12.12.17 220 (ЮЗ) 13-16{16}  10 км    10/3 600 м верхняя 
[Sc|Ci fib]
+13.2 +7.6 69 +11  1019.5  -0.4  748  286           
12 12.12.17 220 (ЮЗ) 11-15{17}  10 км    10/1 600 м верхняя 
[Sc|Ci fib]
+13.3 +6.9 65 +11  1018.5  -0.9  748  286           
15 12.12.17 200 (Ю) 7-10{15}  10 км    5/1 600 м верхняя 
[Sc|Ci fib]
+10.7 +7.9 83 +9  1019.4  0.6  748  289           
18 12.12.17 210 (ЮЗ) 6{10}  10 км    ясно 
+9.5 +7.4 87 +8  1019.7  0.2  748  290    +14       
21 12.12.17 190 (Ю) 10 км    ясно 
+9.3 +7.4 88 +8  1019.4  -0.3  748  290           
00 13.12.17 200 (Ю) 10 км    ясно 
+8.7 +6.3 85 +7  1019  -0.4  748  291           
03 13.12.17 180 (Ю) 10 км    ясно 
+7.2 +5.8 91 +5  1018.5  -0.6  747  292  +6.9         
06 13.12.17 190 (Ю) 10 км    1/0 средняя 
[Ac trans]
+8.9 +7 88 +7  1018.3  -0.1  747  290  +6.1         
09 13.12.17 210 (ЮЗ) 8-12{12}  10 км    1/0 средняя 
[Ac trans]
+14.1 +8.3 68 +13  1017.5  -0.4  747  285           
12 13.12.17 220 (ЮЗ) 8-12{12}  10 км    3/0 верхняя 
[Ci fib]
+14.1 +8.7 70 +13  1016.4  -1  746  284           
15 13.12.17 200 (Ю) 3{12}  10 км    6/0 верхняя 
[Ci fib]
+9.1 +8.2 94 +9  1016.7  -0.1  746  289           
18 13.12.17 200 (Ю) 10 км    ясно 
+9 +5.2 77 +8  1016  -0.7  746  290    +15.2       
21 13.12.17 180 (Ю) 10 км    3/0 верхняя 
[Ci fib]
+4.8 +3.3 90 +3  1015.6  -0.8  745  294           
00 14.12.17 180 (Ю) 10 км    4/0 верхняя 
[Ci fib]
+7.9 +3.9 76 +7  1014.2  -1.1  744  291           
06 14.12.17 190 (Ю) 10 км    10/1 600 м средняя 
[Sc|Ac und]
+11.1 +7.8 80 +10  1012.5  -0.7  743  286  +4.6         
09 14.12.17 210 (ЮЗ) 7-10{10}  10 км    10/6 800 м средняя 
[Sc|Ac und]
+13 +8.1 72 +12  1012.2  -0.1  743  284           
Время (UTC), дата Ветер
(°,м/с) 
Видим.   Явления Облачность Т
(°С)
Тd
(°С)
f(%) Тe
(°С)
Pmin
(гПа)
dP
(гПа)
Po
(мм)
O2
(г/м3)
Тmin Tmax R s Состояние
почвы

Для получения пояснительной информации подведите курсор к названию столбца.

ПОГОДА в Симферополе - архив

Всё, что Вы хотите узнать о погоде в Симферополе - удобно и подробно!

Выберите нужную дату (начиная с 1 января 2015* года) и нажмите кнопку "Найти".
Будут отображены архивные сводки погоды по пункту Симферополь, начиная с указанной даты.


Отображать данные в формате CSV (для использования в таблицах Excel)


Внимание! Наш архив погоды предназначен исключительно для личного некоммерческого использования в познавательных целях. Если Вам необходимы официальные справки о состоянии погоды (для производственных, юридических, коммерческих и т.п. целей), обращайтесь в органы Росгидромета.

*Примечание: данная дата относится к архиву по метеостанциям СССР (Россия, СНГ, Балтия).
Архив по метеостанциям Зарубежной Европы и Азии (кроме Китая) хранится 10 дней, по другим регионам земного шара (Китай, Африка, Америка, Австралия, Океания) - 1 день.

Симферополь - район местоположения метеостанции


Название, широта, долгота, высота метеостанции:
Симферополь 44.7°ш. 34.1°д. 181 м над ур. моря [Российская Федерация]

Дополнительная информация

В oтличие oт бoльшинства пoгoдных сайтoв мы публикуем пoдрoбную метеoинфoрмацию в детальнoм прoфессиoнальнoм фoрмате.

Характеристики температуры и влажнoсти вoздуха измеряются на высoте 2 м в тени вдали oт зданий и деревьев.
Скoрoсть ветра измеряется на высoте 10 м (на урoвне рoста челoвека скoрoсть ветра ниже в 1.5-2 раза). Если метеoстанция нахoдится в гoрoде или в лесу, тo скoрoсть ветра занижена на 2-4 м/с пo сравнению с oткрытым местoм. Скoрoсть ветра над акватoриями крупных рек и oзёр, а также на вершинах хoлмoв на 2-5 м/с выше, чем в oбычных услoвиях.
Атмoсфернoе давление в разных тoчках местнoсти мoжет значительнo oтличаться oт давления на метеoстанции, в зависимoсти oт услoвий рельефа (при пoдъёме на 10 м давление пoнижается примернo на 1 мм рт.ст.).